Location: Newark
(34.1333°N, 7.9667°W)
Time: 11:59:42
(UTC+00:00)

ISS - Pass Details

Date: 04 October 2021
Orbit: 417 x 423 km, 51.6° (Epoch: 18 October)

Event Time Altitude Azimuth Distance (km) Brightness Sun altitude
Rises 20:43:52 0° 303° (WNW) 2,361 1.1 -31.9°
Reaches altitude 10° 20:46:07 10° 292° (WNW) 1,495 -0.1 -32.4°
Enters shadow 20:46:10 10° 292° (WNW) 1,478 -0.1 -32.4°
